TimeCDT,TemperatureF,Dew PointF,Humidity,Sea Level PressureIn,VisibilityMPH,Wind Direction,Wind SpeedMPH,Gust SpeedMPH,PrecipitationIn,Events,Conditions,WindDirDegrees,DateUTC
12:15 AM,32.0,32.0,100,29.76,1.5,NW,17.3,24.2,N/A,Snow,Light Snow,310,2014-04-04 05:15:00
12:35 AM,33.8,33.8,100,29.76,4.0,NW,20.7,28.8,N/A,Snow,Light Snow,320,2014-04-04 05:35:00
12:55 AM,32.0,32.0,100,29.77,1.0,NW,16.1,25.3,N/A,Snow,Light Snow,320,2014-04-04 05:55:00
1:15 AM,33.8,33.8,100,29.78,1.5,NW,16.1,25.3,N/A,Snow,Light Snow,310,2014-04-04 06:15:00
1:35 AM,32.0,32.0,100,29.79,1.2,NW,20.7,29.9,N/A,Snow,Light Snow,320,2014-04-04 06:35:00
1:55 AM,32.0,32.0,100,29.79,1.5,NW,18.4,32.2,N/A,Snow,Light Snow,320,2014-04-04 06:55:00
2:15 AM,32.0,32.0,100,29.79,1.8,NNW,17.3,28.8,N/A,Snow,Light Snow,330,2014-04-04 07:15:00
2:35 AM,32.0,32.0,100,29.79,1.5,NNW,23.0,32.2,N/A,Snow,Light Snow,330,2014-04-04 07:35:00
2:55 AM,32.0,32.0,100,29.80,1.8,NNW,20.7,33.4,N/A,Snow,Light Snow,330,2014-04-04 07:55:00
3:15 AM,32.0,32.0,100,29.78,3.0,NNW,23.0,35.7,N/A,Snow,Light Snow,330,2014-04-04 08:15:00
3:35 AM,32.0,32.0,100,29.79,3.0,NNW,18.4,31.1,N/A,Snow,Light Snow,330,2014-04-04 08:35:00
3:55 AM,32.0,32.0,100,29.80,4.0,NW,21.9,27.6,N/A,Snow,Light Snow,320,2014-04-04 08:55:00
4:15 AM,32.0,32.0,100,29.81,9.0,NW,16.1,23.0,N/A,,Overcast,320,2014-04-04 09:15:00
4:35 AM,33.8,33.8,100,29.81,8.0,NW,24.2,-,N/A,,Overcast,320,2014-04-04 09:35:00
4:55 AM,33.8,33.8,100,29.83,10.0,NW,20.7,31.1,N/A,,Overcast,320,2014-04-04 09:55:00
5:15 AM,33.8,33.8,100,29.84,10.0,NW,18.4,26.5,N/A,,Overcast,320,2014-04-04 10:15:00
5:35 AM,33.8,33.8,100,29.86,10.0,NW,21.9,28.8,N/A,,Overcast,320,2014-04-04 10:35:00
5:55 AM,33.8,33.8,100,29.87,10.0,NW,19.6,35.7,N/A,,Overcast,320,2014-04-04 10:55:00
6:15 AM,33.8,32.0,93,29.88,10.0,NW,19.6,33.4,N/A,,Overcast,320,2014-04-04 11:15:00
6:35 AM,33.8,32.0,93,29.89,10.0,NW,19.6,34.5,N/A,,Overcast,320,2014-04-04 11:35:00
6:55 AM,33.8,32.0,93,29.90,10.0,NW,21.9,31.1,N/A,,Overcast,320,2014-04-04 11:55:00
7:15 AM,33.8,32.0,93,29.91,10.0,NW,20.7,-,N/A,,Overcast,320,2014-04-04 12:15:00
7:35 AM,33.8,32.0,93,29.93,10.0,NW,19.6,31.1,N/A,,Overcast,310,2014-04-04 12:35:00
7:55 AM,33.8,32.0,93,29.93,10.0,NW,23.0,34.5,N/A,,Overcast,320,2014-04-04 12:55:00
8:15 AM,33.8,32.0,93,29.94,10.0,NW,19.6,26.5,N/A,,Overcast,320,2014-04-04 13:15:00
8:35 AM,32.0,32.0,100,29.95,10.0,NW,19.6,28.8,N/A,,Overcast,320,2014-04-04 13:35:00
8:55 AM,32.0,32.0,100,29.96,10.0,NW,20.7,28.8,N/A,,Overcast,320,2014-04-04 13:55:00
9:15 AM,33.8,32.0,93,29.97,10.0,NW,19.6,28.8,N/A,,Overcast,320,2014-04-04 14:15:00
9:35 AM,33.8,32.0,93,29.98,10.0,NW,12.7,27.6,N/A,,Overcast,320,2014-04-04 14:35:00
9:55 AM,33.8,32.0,93,29.99,10.0,NW,20.7,-,N/A,,Overcast,320,2014-04-04 14:55:00
10:15 AM,33.8,32.0,93,30.00,10.0,NW,18.4,-,N/A,,Overcast,320,2014-04-04 15:15:00
10:35 AM,33.8,32.0,93,30.01,10.0,NW,19.6,25.3,N/A,,Overcast,310,2014-04-04 15:35:00
10:55 AM,33.8,32.0,93,30.02,10.0,NW,15.0,21.9,N/A,,Overcast,320,2014-04-04 15:55:00
11:15 AM,33.8,32.0,93,30.03,10.0,NW,18.4,25.3,N/A,,Overcast,310,2014-04-04 16:15:00
11:35 AM,33.8,32.0,93,30.03,10.0,NW,16.1,26.5,N/A,,Overcast,310,2014-04-04 16:35:00
11:55 AM,35.6,33.8,93,30.03,10.0,NW,21.9,-,N/A,,Overcast,310,2014-04-04 16:55:00
12:15 PM,35.6,33.8,93,30.04,10.0,NW,17.3,31.1,N/A,,Overcast,320,2014-04-04 17:15:00
12:35 PM,35.6,33.8,93,30.05,10.0,NNW,15.0,26.5,N/A,,Overcast,330,2014-04-04 17:35:00
1:15 PM,37.4,33.8,87,30.05,10.0,NW,19.6,25.3,N/A,,Overcast,320,2014-04-04 18:15:00
1:35 PM,37.4,33.8,87,30.06,10.0,NNW,13.8,23.0,N/A,,Overcast,330,2014-04-04 18:35:00
1:55 PM,37.4,33.8,87,30.06,10.0,NW,17.3,25.3,N/A,,Overcast,310,2014-04-04 18:55:00
2:15 PM,37.4,33.8,87,30.07,10.0,NW,15.0,23.0,N/A,,Overcast,310,2014-04-04 19:15:00
2:35 PM,39.2,33.8,81,30.07,10.0,NW,11.5,23.0,N/A,,Mostly Cloudy,320,2014-04-04 19:35:00
2:55 PM,39.2,33.8,81,30.07,10.0,NW,18.4,25.3,N/A,,Overcast,320,2014-04-04 19:55:00
3:15 PM,39.2,32.0,75,30.07,10.0,NW,13.8,21.9,N/A,,Overcast,320,2014-04-04 20:15:00
3:55 PM,39.2,32.0,75,30.07,10.0,NNW,15.0,-,N/A,,Overcast,340,2014-04-04 20:55:00
4:15 PM,39.2,32.0,75,30.08,10.0,NW,13.8,-,N/A,,Overcast,320,2014-04-04 21:15:00
4:35 PM,39.2,32.0,75,30.07,10.0,NNW,11.5,-,N/A,,Overcast,330,2014-04-04 21:35:00
4:55 PM,39.2,32.0,75,30.07,10.0,NW,8.1,15.0,N/A,,Overcast,310,2014-04-04 21:55:00
5:15 PM,41.0,33.8,76,30.07,10.0,NNW,9.2,16.1,N/A,,Overcast,340,2014-04-04 22:15:00
5:35 PM,39.2,32.0,75,30.08,10.0,North,9.2,17.3,N/A,,Overcast,350,2014-04-04 22:35:00
5:55 PM,39.2,32.0,75,30.08,10.0,NNW,8.1,13.8,N/A,,Overcast,330,2014-04-04 22:55:00
6:15 PM,39.2,32.0,75,30.09,10.0,NNW,10.4,16.1,N/A,,Overcast,340,2014-04-04 23:15:00
6:35 PM,41.0,32.0,70,30.09,10.0,North,6.9,-,N/A,,Overcast,360,2014-04-04 23:35:00
6:55 PM,39.2,32.0,75,30.09,10.0,NNW,9.2,-,N/A,,Overcast,340,2014-04-04 23:55:00
7:15 PM,39.2,32.0,75,30.10,10.0,North,10.4,-,N/A,,Overcast,350,2014-04-05 00:15:00
7:35 PM,37.4,32.0,81,30.10,10.0,North,6.9,-,N/A,,Overcast,360,2014-04-05 00:35:00
7:50 PM,37.4,32.0,81,30.10,10.0,NNE,6.9,-,N/A,,Overcast,20,2014-04-05 00:50:00
8:15 PM,35.6,32.0,87,30.11,10.0,NNE,4.6,-,N/A,,Overcast,30,2014-04-05 01:15:00
8:35 PM,35.6,32.0,87,30.11,10.0,NNE,5.8,-,N/A,,Overcast,30,2014-04-05 01:35:00
8:55 PM,33.8,30.2,87,30.12,10.0,NE,3.5,-,N/A,,Scattered Clouds,50,2014-04-05 01:55:00
9:15 PM,33.8,30.2,87,30.13,10.0,Calm,Calm,-,N/A,,Scattered Clouds,0,2014-04-05 02:15:00
9:35 PM,33.8,30.2,87,30.13,10.0,ENE,3.5,-,N/A,,Partly Cloudy,70,2014-04-05 02:35:00
9:55 PM,33.8,30.2,87,30.13,10.0,ENE,3.5,-,N/A,,Clear,70,2014-04-05 02:55:00
10:15 PM,32.0,30.2,93,30.13,10.0,Calm,Calm,-,N/A,,Clear,0,2014-04-05 03:15:00
10:35 PM,30.2,30.2,100,30.14,10.0,Calm,Calm,-,N/A,,Clear,0,2014-04-05 03:35:00
10:55 PM,32.0,30.2,93,30.14,10.0,Calm,Calm,-,N/A,,Clear,0,2014-04-05 03:55:00
11:15 PM,30.2,30.2,100,30.14,10.0,SSE,4.6,-,N/A,,Clear,150,2014-04-05 04:15:00
11:35 PM,30.2,30.2,100,30.14,10.0,SE,4.6,-,N/A,,Clear,140,2014-04-05 04:35:00
11:55 PM,30.2,30.2,100,30.14,10.0,SE,5.8,-,N/A,,Clear,140,2014-04-05 04:55:00